Hourly Data Report for August 28, 2014

All times are specified in Local Standard Time (LST). Add 1 hour to adjust for Daylight Saving Time where and when it is observed.

Metadata including Station Name, Province, Latitude, Longitude, Elevation, Climate ID, WMO ID, TC ID
WEKWEETI A
NORTHWEST TERRITORIES
Latitude: 64°11'27.000" N Longitude: 114°04'36.000" W Elevation: 368.20 m
Climate ID: 2203980 WMO ID: TC ID: YWE
Hourly Data Report for August 27, 2014
Temp Definition
°C

Dew Point Temp Definition
°C

Rel Hum Definition
%

Wind Dir Definition
10's deg
Wind Spd Definition
km/h

Visibility Definition
km

Stn Press Definition
kPa

Hmdx Definition

Wind Chill Definition

Weather Definition

00:00 Legend Double Dagger 7.3 5.1 86 6 17 16.1 96.20 LegendNANA
01:00 Legend Double Dagger 6.9 4.1 82 5 13 16.1 96.21 LegendNANA
02:00 Legend Double Dagger 7.6 4.5 81 8 13 16.1 96.20 LegendNANA
03:00 Legend Double Dagger 8.2 3.9 74 8 18 16.1 96.22 LegendNANA
04:00 Legend Double Dagger 8.2 4.0 75 8 15 16.1 96.22 LegendNANA
05:00 Legend Double Dagger 8.1 3.9 75 9 15 16.1 96.25 LegendNANA
06:00 Legend Double Dagger 7.8 2.7 70 5 15 16.1 96.23 LegendNANA
07:00 Legend Double Dagger 7.7 2.3 68 4 18 16.1 96.21 LegendNANA
08:00 Legend Double Dagger 8.0 2.1 66 5 24 16.1 96.21 LegendNANA
09:00 Legend Double Dagger 8.2 1.7 63 4 22 16.1 96.21 LegendNANA
10:00 Legend Double Dagger 8.2 1.8 64 5 18 16.1 96.24 LegendNANA
11:00 Legend Double Dagger 8.3 1.9 64 6 22 16.1 96.27 LegendNANA
12:00 Legend Double Dagger 8.3 1.8 63 5 22 16.1 96.30 LegendNANA
13:00 Legend Double Dagger 8.7 2.1 63 7 17 16.1 96.30 LegendNANA
14:00 Legend Double Dagger 8.7 2.1 63 3 22 16.1 96.33 LegendNANA
15:00 Legend Double Dagger 8.9 1.8 61 3 18 16.1 96.37 LegendNANA
16:00 Legend Double Dagger 8.8 1.7 61 4 15 16.1 96.41 LegendNANA
17:00 Legend Double Dagger 8.4 1.8 63 2 13 16.1 96.45 LegendNANA
18:00 Legend Double Dagger 8.0 1.0 61 1 18 16.1 96.49 LegendNANA
19:00 Legend Double Dagger 7.7 1.1 63 36 17 16.1 96.51 LegendNANA
20:00 Legend Double Dagger 6.4 2.1 74 36 15 16.1 96.54 LegendNANA
21:00 Legend Double Dagger 6.5 3.0 78 34 9 16.1 96.55 LegendNANA
22:00 Legend Double Dagger 6.0 3.4 84 4 13 16.1 96.57 LegendNANA
23:00 Legend Double Dagger 5.7 2.7 81 36 8 16.1 96.58 LegendNANA

Notes on Data Quality.

Legend
  • E = Estimated
  • M = Missing
  • NA = Not Available
  • ‡ = Partner data that is not subject to review by the National Climate Archives